EW6394 Weather Reports


time (UTC)temp
C
wind
direction
speed
KPH
gust
KPH
rain 1hr
cm
rain 24hr
cm
rain mn
cm
humidity
%
barometer
mb
20260506124531 7 144 0.0 1.6 0.00 0.00 0.00 96 1019.1
20260506123032 7 144 0.0 1.6 0.00 0.00 0.00 95 1019.0
20260506121529 7 160 0.0 0.0 0.00 0.00 0.00 95 1018.9
20260506120040 7 160 0.0 0.0 0.00 0.00 0.00 95 1018.8
20260506114526 7 161 0.0 3.2 0.00 0.00 0.00 95 1018.6
20260506113030 7 162 1.6 4.8 0.00 0.00 0.00 95 1018.7
20260506111522 7 160 0.0 0.0 0.00 0.00 0.00 95 1018.7
20260506110021 7 161 0.0 0.0 0.00 0.00 0.00 94 1018.8
20260506104525 8 161 0.0 3.2 0.00 0.00 0.00 94 1018.7
20260506103026 8 158 0.0 0.0 0.00 0.00 0.00 94 1018.7
20260506101517 8 160 0.0 0.0 0.00 0.00 0.00 94 1018.7
20260506100017 8 160 0.0 0.0 0.00 0.00 0.00 94 1018.6
20260506094519 8 162 0.0 1.6 0.00 0.00 0.00 93 1018.6
20260506093016 8 157 0.0 1.6 0.00 0.00 0.00 94 1018.5
20260506091517 8 161 0.0 3.2 0.00 0.00 0.00 93 1018.4
20260506090018 8 161 0.0 3.2 0.00 0.00 0.00 93 1018.5
20260506084509 8 160 0.0 3.2 0.00 0.00 0.00 91 1018.4
20260506083006 8 149 0.0 0.0 0.00 0.00 0.00 91 1018.5
20260506081505 8 149 0.0 0.0 0.00 0.00 0.00 91 1018.5
20260506073103 9 149 0.0 0.0 0.00 0.00 0.00 90 1018.4
20260506071558 10 149 0.0 0.0 0.00 0.00 0.00 89 1018.2
20260506061600 10 149 0.0 0.0 0.00 0.00 0.00 84 1017.6
20260506050104 10 176 0.0 1.6 0.00 0.00 0.00 84 1017.1
20260506044550 10 176 0.0 0.0 0.00 0.00 0.00 84 1017.0
20260506043044 11 176 0.0 0.0 0.00 0.00 0.00 84 1016.8
20260506041542 11 176 0.0 0.0 0.00 0.00 0.00 82 1016.6
20260506040043 11 176 0.0 0.0 0.00 0.00 0.00 81 1016.4
20260506034540 11 147 1.6 6.4 0.00 0.00 0.00 79 1016.1
20260506033038 11 183 6.4 16.1 0.00 0.00 0.00 83 1015.8
20260506031544 11 199 8.0 16.1 0.00 0.00 0.00 84 1015.5
20260506030032 11 226 6.4 12.9 0.00 0.00 0.00 85 1015.2
20260506024541 12 201 8.0 14.5 0.00 0.00 0.00 83 1015.1
20260506023031 12 196 6.4 14.5 0.00 0.00 0.00 81 1015.0
20260506021532 12 149 11.3 20.9 0.00 0.00 0.00 80 1014.9
20260506020029 13 165 9.7 19.3 0.00 0.00 0.00 79 1014.8
20260506014531 13 185 11.3 19.3 0.00 0.00 0.00 79 1014.9
20260506013053 13 227 9.7 16.1 0.00 0.00 0.00 77 1014.8
20260506011534 13 167 6.4 19.3 0.00 0.00 0.00 76 1014.9
20260506010028 13 174 6.4 16.1 0.00 0.00 0.00 75 1014.9
20260506004527 13 159 11.3 20.9 0.00 0.00 0.00 73 1014.8
20260506003027 14 190 9.7 19.3 0.00 0.00 0.00 72 1014.7
20260506001526 15 207 8.0 14.5 0.00 0.00 0.00 71 1014.7
20260506000030 15 202 6.4 19.3 0.00 0.00 0.00 72 1014.7
20260505234526 16 203 8.0 17.7 0.00 0.00 0.00 70 1014.6
20260505233025 16 150 4.8 14.5 0.00 0.00 0.00 71 1014.6
20260505231525 16 165 4.8 14.5 0.00 0.00 0.00 68 1014.7
20260505230029 16 163 8.0 17.7 0.00 0.00 0.00 68 1014.7
20260505224523 16 201 4.8 16.1 0.00 0.00 0.00 69 1014.9
20260505223028 16 196 4.8 16.1 0.00 0.00 0.00 66 1014.9
20260505221525 16 188 4.8 16.1 0.00 0.00 0.00 67 1015.0
20260505220022 16 138 6.4 12.9 0.00 0.00 0.00 67 1015.2
20260505214524 16 149 8.0 19.3 0.00 0.00 0.00 67 1015.4
20260505213019 16 132 4.8 22.5 0.00 0.00 0.00 71 1015.5
20260505211515 15 203 6.4 16.1 0.00 0.00 0.00 69 1015.6
20260505210015 15 223 6.4 16.1 0.00 0.00 0.00 72 1015.7
20260505204516 15 184 6.4 16.1 0.00 0.00 0.00 72 1015.7
20260505203014 15 170 4.8 17.7 0.00 0.00 0.00 71 1015.6
20260505201514 15 211 4.8 16.1 0.00 0.00 0.00 74 1015.7
20260505200011 15 227 6.4 14.5 0.00 0.00 0.00 75 1015.6
20260505194509 15 201 6.4 16.1 0.00 0.00 0.00 74 1015.7
20260505191504 14 189 4.8 11.3 0.00 0.00 0.00 74 1015.7
20260505190004 15 128 4.8 11.3 0.00 0.00 0.00 73 1015.7
20260505184502 14 253 3.2 11.3 0.00 0.00 0.00 74 1015.6
20260505183107 15 194 3.2 11.3 0.00 0.00 0.00 71 1015.5
20260505181559 15 201 1.6 6.4 0.00 0.00 0.00 70 1015.5
20260505174601 14 144 0.0 4.8 0.00 0.00 0.00 73 1015.3
20260505173052 13 182 0.0 6.4 0.00 0.00 0.00 73 1015.3
20260505171551 13 226 0.0 8.0 0.00 0.00 0.00 76 1015.4
20260505170047 12 9 1.6 6.4 0.00 0.00 0.00 78 1015.5
20260505164544 12 145 0.0 6.4 0.00 0.00 0.00 79 1015.4
20260505163041 11 42 1.6 8.0 0.00 0.00 0.00 82 1015.4
20260505161537 10 48 0.0 4.8 0.00 0.00 0.00 84 1015.3
20260505153035 10 33 1.6 4.8 0.00 0.00 0.00 87 1015.2
20260505151529 10 114 0.0 0.0 0.00 0.00 0.00 90 1015.0